timestamp,wind_dir_avg,wind_spd_avg,wind_spd_max_dir,wind_spd_gust,battery_voltage,lat,long
2021-01-03 00:04:01+00:00,88.0,3.03,83.0,3.96,12.57,47.59359,-54.27349
2021-01-03 00:14:01+00:00,74.0,5.37,69.0,6.4,12.57,47.59359,-54.27349
2021-01-03 00:24:01+00:00,73.0,4.76,66.0,6.25,12.57,47.59359,-54.27349
2021-01-03 00:34:01+00:00,80.0,3.98,70.0,6.02,12.57,47.59359,-54.27349
2021-01-03 00:44:01+00:00,73.0,5.05,67.0,6.26,12.57,47.59359,-54.27349
2021-01-03 00:54:01+00:00,77.0,3.49,84.0,4.67,12.57,47.59359,-54.27349
2021-01-03 01:04:01+00:00,82.0,3.89,84.0,5.46,12.57,47.59359,-54.27349
2021-01-03 01:14:01+00:00,90.0,2.64,43.0,4.3,12.49,47.59359,-54.27349
2021-01-03 01:24:01+00:00,114.0,4.42,132.0,6.73,12.49,47.59359,-54.27349
2021-01-03 01:34:01+00:00,99.0,4.67,83.0,6.33,12.49,47.59359,-54.27349
2021-01-03 01:44:01+00:00,95.0,4.45,69.0,6.61,12.49,47.59359,-54.27349
2021-01-03 01:54:01+00:00,104.0,4.32,126.0,7.18,12.49,47.59359,-54.27349
2021-01-03 02:04:01+00:00,99.0,3.99,116.0,6.23,12.49,47.59359,-54.27349
2021-01-03 02:14:01+00:00,111.0,4.26,126.0,6.58,12.49,47.59359,-54.27349
2021-01-03 02:24:01+00:00,90.0,4.69,75.0,6.85,12.49,47.59359,-54.27349
2021-01-03 02:34:01+00:00,91.0,4.13,87.0,5.94,12.49,47.59359,-54.27349
2021-01-03 02:44:01+00:00,98.0,5.09,88.0,7.7,12.49,47.59359,-54.27349
2021-01-03 02:54:01+00:00,110.0,4.66,111.0,6.56,12.49,47.59359,-54.27349
2021-01-03 03:04:01+00:00,107.0,4.16,82.0,7.08,12.49,47.59359,-54.27349
2021-01-03 03:14:01+00:00,96.0,4.09,93.0,6.39,12.49,47.59359,-54.27349
2021-01-03 03:24:01+00:00,101.0,4.44,114.0,7.41,12.49,47.59359,-54.27349
2021-01-03 03:34:01+00:00,99.0,4.87,116.0,8.55,12.49,47.59359,-54.27349
2021-01-03 03:44:01+00:00,104.0,4.17,125.0,6.56,12.49,47.59359,-54.27349
2021-01-03 03:54:01+00:00,88.0,4.17,125.0,6.58,12.49,47.59359,-54.27349
2021-01-03 04:04:01+00:00,96.0,4.51,112.0,8.17,12.49,47.59359,-54.27349
2021-01-03 04:14:01+00:00,92.0,4.52,91.0,6.74,12.41,47.59359,-54.27349
2021-01-03 04:24:01+00:00,97.0,4.44,95.0,8.75,12.41,47.59359,-54.27349
2021-01-03 04:34:01+00:00,106.0,5.19,118.0,9.59,12.41,47.59359,-54.27349
2021-01-03 04:44:01+00:00,98.0,5.04,118.0,9.04,12.41,47.59359,-54.27349
2021-01-03 04:54:01+00:00,90.0,4.42,134.0,7.76,12.41,47.59359,-54.27349
2021-01-03 05:04:01+00:00,95.0,5.2,104.0,9.26,12.41,47.59359,-54.27349
2021-01-03 05:14:01+00:00,103.0,6.48,116.0,10.38,12.41,47.59359,-54.27349
2021-01-03 05:24:01+00:00,97.0,5.3,137.0,9.4,12.41,47.59359,-54.27349
2021-01-03 05:34:01+00:00,88.0,6.24,95.0,10.17,12.41,47.59359,-54.27349
2021-01-03 05:44:01+00:00,78.0,7.78,57.0,12.67,12.41,47.59359,-54.27349
2021-01-03 05:54:01+00:00,93.0,6.44,88.0,9.9,12.41,47.59359,-54.27349
2021-01-03 06:04:01+00:00,76.0,6.42,88.0,10.55,12.41,47.59359,-54.27349
2021-01-03 06:14:01+00:00,76.0,6.96,80.0,9.88,12.41,47.59359,-54.27349
2021-01-03 06:24:01+00:00,77.0,8.13,60.0,12.07,12.41,47.59359,-54.27349
2021-01-03 06:34:01+00:00,80.0,9.0,70.0,12.16,12.41,47.59359,-54.27349
2021-01-03 06:44:01+00:00,74.0,7.48,70.0,11.13,12.41,47.59359,-54.27349
2021-01-03 06:54:01+00:00,78.0,7.36,57.0,12.26,12.41,47.59359,-54.27349
2021-01-03 07:04:01+00:00,75.0,9.65,63.0,12.23,12.41,47.59359,-54.27349
2021-01-03 07:14:01+00:00,77.0,7.65,71.0,10.98,12.41,47.59359,-54.27349
2021-01-03 07:24:01+00:00,83.0,7.07,104.0,11.01,12.41,47.59359,-54.27349
2021-01-03 07:34:01+00:00,75.0,7.65,69.0,12.27,12.41,47.59359,-54.27349
2021-01-03 07:44:01+00:00,74.0,8.84,69.0,11.36,12.41,47.59359,-54.27349
2021-01-03 07:54:01+00:00,71.0,11.88,64.0,15.05,12.41,47.59359,-54.27349
2021-01-03 08:04:01+00:00,75.0,10.55,71.0,12.31,12.41,47.59359,-54.27349
2021-01-03 08:14:01+00:00,70.0,12.13,67.0,13.51,12.41,47.59359,-54.27349
2021-01-03 08:24:01+00:00,64.0,11.72,58.0,12.93,12.41,47.59359,-54.27349
2021-01-03 08:34:01+00:00,64.0,11.33,59.0,12.98,12.41,47.59359,-54.27349
2021-01-03 08:44:01+00:00,67.0,11.05,69.0,12.58,12.41,47.59359,-54.27349
2021-01-03 08:54:01+00:00,62.0,11.63,60.0,13.37,12.41,47.59359,-54.27349
2021-01-03 09:04:01+00:00,66.0,11.61,72.0,14.36,12.41,47.59359,-54.27349
2021-01-03 09:14:01+00:00,64.0,11.57,63.0,12.89,12.33,47.59359,-54.27349
2021-01-03 09:24:01+00:00,63.0,11.48,70.0,12.96,12.33,47.59359,-54.27349
2021-01-03 09:34:01+00:00,59.0,12.58,60.0,14.35,12.33,47.59359,-54.27349
2021-01-03 09:44:01+00:00,60.0,12.22,52.0,14.08,12.33,47.59359,-54.27349
2021-01-03 09:54:01+00:00,61.0,11.57,58.0,14.08,12.33,47.59359,-54.27349
2021-01-03 10:04:01+00:00,59.0,13.41,57.0,14.55,12.33,47.59359,-54.27349
2021-01-03 10:14:01+00:00,58.0,12.23,56.0,14.33,12.33,47.59359,-54.27349
2021-01-03 10:24:01+00:00,59.0,13.27,62.0,15.37,12.33,47.59359,-54.27349
2021-01-03 10:34:01+00:00,61.0,12.56,55.0,15.3,12.33,47.59359,-54.27349
2021-01-03 10:44:01+00:00,64.0,11.98,66.0,13.55,12.33,47.59359,-54.27349
2021-01-03 10:54:01+00:00,59.0,11.82,52.0,15.68,12.33,47.59359,-54.27349
2021-01-03 11:04:01+00:00,61.0,13.36,52.0,14.73,12.33,47.59359,-54.27349
2021-01-03 11:14:01+00:00,60.0,12.99,55.0,15.12,12.33,47.59359,-54.27349
2021-01-03 11:24:01+00:00,66.0,12.54,64.0,13.99,12.33,47.59359,-54.27349
2021-01-03 11:34:01+00:00,63.0,13.31,57.0,16.06,12.33,47.59359,-54.27349
2021-01-03 11:44:01+00:00,61.0,12.84,60.0,14.82,12.33,47.59359,-54.27349
2021-01-03 11:54:01+00:00,61.0,12.9,59.0,14.74,12.33,47.59359,-54.27349
2021-01-03 12:04:01+00:00,67.0,12.43,74.0,14.61,12.33,47.59359,-54.27349
2021-01-03 12:14:01+00:00,67.0,11.71,74.0,14.38,12.33,47.59359,-54.27349
2021-01-03 12:24:01+00:00,62.0,12.04,55.0,13.73,12.33,47.59359,-54.27349
2021-01-03 12:34:01+00:00,61.0,12.28,55.0,13.84,12.33,47.59359,-54.27349
2021-01-03 12:44:01+00:00,64.0,11.88,69.0,13.47,12.33,47.59359,-54.27349
2021-01-03 12:54:01+00:00,64.0,12.23,67.0,13.55,12.33,47.59359,-54.27349
2021-01-03 13:04:01+00:00,65.0,12.71,67.0,14.56,12.33,47.59359,-54.27349
2021-01-03 13:14:01+00:00,65.0,13.24,62.0,14.85,12.33,47.59359,-54.27349
2021-01-03 13:24:01+00:00,69.0,12.31,74.0,14.04,12.33,47.59359,-54.27349
2021-01-03 13:34:01+00:00,62.0,11.88,57.0,14.76,12.33,47.59359,-54.27349
2021-01-03 13:44:01+00:00,60.0,12.02,55.0,14.05,12.33,47.59359,-54.27349
2021-01-03 13:54:01+00:00,64.0,12.99,67.0,15.41,12.33,47.59359,-54.27349
2021-01-03 14:04:01+00:00,61.0,13.02,70.0,15.52,12.33,47.59359,-54.27349
2021-01-03 14:14:01+00:00,69.0,11.83,71.0,13.2,12.49,47.59359,-54.27349
2021-01-03 14:24:01+00:00,60.0,12.86,68.0,14.58,12.49,47.59359,-54.27349
2021-01-03 14:34:01+00:00,70.0,12.62,74.0,14.01,12.49,47.59359,-54.27349
2021-01-03 14:44:01+00:00,62.0,12.7,63.0,15.22,12.49,47.59359,-54.27349
2021-01-03 14:54:01+00:00,65.0,12.08,62.0,13.77,12.49,47.59359,-54.27349
2021-01-03 15:04:01+00:00,66.0,12.12,65.0,13.61,12.49,47.59359,-54.27349
2021-01-03 15:14:01+00:00,63.0,12.0,61.0,13.34,13.05,47.59359,-54.27349
2021-01-03 15:24:01+00:00,64.0,12.7,53.0,14.73,13.05,47.59359,-54.27349
2021-01-03 15:34:01+00:00,62.0,12.75,60.0,14.1,13.05,47.59359,-54.27349
2021-01-03 15:44:01+00:00,63.0,11.5,63.0,12.9,13.05,47.59359,-54.27349
2021-01-03 15:54:01+00:00,58.0,12.61,56.0,14.46,13.05,47.59359,-54.27349
2021-01-03 16:04:01+00:00,55.0,12.43,54.0,14.29,13.05,47.59359,-54.27349
2021-01-03 16:14:01+00:00,55.0,13.01,57.0,15.13,13.68,47.59359,-54.27349
2021-01-03 16:24:01+00:00,56.0,13.86,58.0,16.01,13.68,47.59359,-54.27349
2021-01-03 16:34:01+00:00,55.0,13.05,52.0,15.14,13.68,47.59359,-54.27349
2021-01-03 16:44:01+00:00,64.0,13.89,69.0,16.14,13.68,47.59359,-54.27349
2021-01-03 16:54:01+00:00,53.0,14.15,51.0,15.73,13.68,47.59359,-54.27349
2021-01-03 17:04:01+00:00,60.0,13.61,57.0,15.71,13.68,47.59359,-54.27349
2021-01-03 17:14:01+00:00,59.0,13.53,59.0,15.94,13.6,47.59359,-54.27349
2021-01-03 17:24:01+00:00,54.0,12.87,58.0,14.94,13.6,47.59359,-54.27349
2021-01-03 17:34:01+00:00,57.0,13.7,57.0,15.4,13.6,47.59359,-54.27349
2021-01-03 17:44:01+00:00,56.0,13.17,57.0,14.66,13.6,47.59359,-54.27349
2021-01-03 17:54:01+00:00,57.0,13.28,58.0,14.98,13.6,47.59359,-54.27349
2021-01-03 18:04:01+00:00,57.0,13.53,52.0,15.08,13.6,47.59359,-54.27349
2021-01-03 18:14:01+00:00,57.0,13.42,59.0,15.98,13.21,47.59359,-54.27349
2021-01-03 18:24:01+00:00,48.0,12.1,47.0,13.98,13.21,47.59359,-54.27349
2021-01-03 18:34:01+00:00,50.0,12.34,45.0,14.6,13.21,47.59359,-54.27349
2021-01-03 18:44:01+00:00,52.0,13.56,46.0,15.41,13.21,47.59359,-54.27349
2021-01-03 18:54:01+00:00,53.0,12.83,49.0,14.67,13.21,47.59359,-54.27349
2021-01-03 19:04:01+00:00,59.0,13.38,54.0,15.19,13.21,47.59359,-54.27349
2021-01-03 19:14:01+00:00,54.0,14.62,51.0,17.48,12.81,47.59359,-54.27349
2021-01-03 19:24:01+00:00,55.0,13.72,57.0,15.44,12.81,47.59359,-54.27349
2021-01-03 19:34:01+00:00,57.0,14.12,57.0,15.15,12.81,47.59359,-54.27349
2021-01-03 19:44:01+00:00,57.0,14.65,66.0,17.51,12.81,47.59359,-54.27349
2021-01-03 19:54:01+00:00,59.0,13.2,60.0,14.89,12.81,47.59359,-54.27349
2021-01-03 20:04:01+00:00,51.0,13.56,54.0,15.21,12.81,47.59359,-54.27349
2021-01-03 20:14:01+00:00,51.0,11.71,52.0,14.77,12.57,47.59359,-54.27349
2021-01-03 20:24:01+00:00,46.0,12.69,40.0,14.43,12.57,47.59359,-54.27349
2021-01-03 20:34:01+00:00,42.0,12.62,46.0,14.29,12.57,47.59359,-54.27349
2021-01-03 20:44:01+00:00,49.0,10.4,42.0,13.75,12.57,47.59359,-54.27349
2021-01-03 20:54:01+00:00,49.0,12.96,60.0,16.09,12.57,47.59359,-54.27349
2021-01-03 21:04:01+00:00,42.0,12.97,42.0,14.52,12.57,47.59359,-54.27349
2021-01-03 21:14:01+00:00,49.0,13.07,49.0,14.53,12.57,47.59359,-54.27349
2021-01-03 21:24:01+00:00,38.0,11.79,44.0,13.56,12.57,47.59359,-54.27349
2021-01-03 21:34:01+00:00,42.0,11.52,45.0,13.43,12.57,47.59359,-54.27349
2021-01-03 21:44:01+00:00,43.0,10.92,50.0,13.11,12.57,47.59359,-54.27349
2021-01-03 21:54:01+00:00,45.0,12.52,46.0,13.9,12.57,47.59359,-54.27349
2021-01-03 22:04:01+00:00,37.0,12.74,38.0,14.56,12.57,47.59359,-54.27349
2021-01-03 22:14:01+00:00,42.0,10.72,57.0,12.19,12.49,47.59359,-54.27349
2021-01-03 22:24:01+00:00,44.0,10.92,46.0,12.11,12.49,47.59359,-54.27349
2021-01-03 22:34:01+00:00,42.0,10.64,38.0,13.37,12.49,47.59359,-54.27349
2021-01-03 22:44:01+00:00,35.0,11.37,34.0,12.56,12.49,47.59359,-54.27349
2021-01-03 22:54:01+00:00,35.0,11.95,35.0,13.16,12.49,47.59359,-54.27349
2021-01-03 23:04:01+00:00,39.0,10.99,47.0,12.33,12.49,47.59359,-54.27349
2021-01-03 23:14:01+00:00,42.0,10.49,45.0,12.11,12.49,47.59359,-54.27349
2021-01-03 23:24:01+00:00,49.0,11.66,50.0,12.88,12.49,47.59359,-54.27349
2021-01-03 23:34:01+00:00,40.0,11.07,41.0,12.05,12.49,47.59359,-54.27349
2021-01-03 23:44:01+00:00,32.0,11.13,33.0,12.45,12.49,47.59359,-54.27349
2021-01-03 23:54:01+00:00,35.0,10.82,34.0,12.86,12.49,47.59359,-54.27349
